This is the latest recevied weather packets stored in our database for station/object KK7KRZ. If no packets are shown the sender has not sent any weather packets the latest 10 day(s).
| Time | Temp. | Humidity | Pressure | Rain* | Wind** | Luminosity | Snow |
|---|---|---|---|---|---|---|---|
| 1776967270 | 11.11° C | 68% | 1024.4 hPa | 0 mm | - | 148 W/m² | - |
| 1776966964 | 11.11° C | 68% | 1024.5 hPa | 0 mm | - | 140 W/m² | - |
| 1776966661 | 11.11° C | 69% | 1024.5 hPa | 0 mm | - | 137 W/m² | - |
| 1776966356 | 11.11° C | 70% | 1024.5 hPa | 0 mm | - | 126 W/m² | - |
| 1776966051 | 11.67° C | 66% | 1024.5 hPa | 0 mm | - | 113 W/m² | - |
| 1776965749 | 11.11° C | 70% | 1024.5 hPa | 0 mm | - | 115 W/m² | - |
| 1776965447 | 11.11° C | 69% | 1024.5 hPa | 0 mm | - | 127 W/m² | - |
| 1776965139 | 11.11° C | 72% | 1024.4 hPa | 0 mm | - | 130 W/m² | - |
| 1776964835 | 11.11° C | 74% | 1024.3 hPa | 0 mm | - | 130 W/m² | - |
| 1776964534 | 11.11° C | 74% | 1024.4 hPa | 0 mm | - | 140 W/m² | - |
| 1776964232 | 11.11° C | 73% | 1024.5 hPa | 0 mm | - | 137 W/m² | - |
| 1776963929 | 11.11° C | 71% | 1024.5 hPa | 0 mm | - | 134 W/m² | - |
| 1776963628 | 11.67° C | 70% | 1024.3 hPa | 0 mm | - | 159 W/m² | - |
| 1776963324 | 11.67° C | 74% | 1024.3 hPa | 0 mm | - | 154 W/m² | - |
| 1776963020 | 11.67° C | 75% | 1024.3 hPa | 0 mm | - | 184 W/m² | - |
| 1776962716 | 11.11° C | 75% | 1024.2 hPa | 0 mm | - | 176 W/m² | - |
| 1776962415 | 10.56° C | 75% | 1024.6 hPa | 0 mm | - | 164 W/m² | - |
| 1776962111 | 10.56° C | 75% | 1024.5 hPa | 0 mm | - | 155 W/m² | - |
| 1776961804 | 10.56° C | 79% | 1024.4 hPa | 0 mm | - | 154 W/m² | - |
| 1776961503 | 10.56° C | 81% | 1024.6 hPa | 0 mm | - | 149 W/m² | - |
| 1776961202 | 10.56° C | 82% | 1024.5 hPa | 0 mm | - | 143 W/m² | - |
| 1776960898 | 10.56° C | 83% | 1024.2 hPa | 0 mm | - | 137 W/m² | - |
| 1776960593 | 10° C | 83% | 1024.4 hPa | 0 mm | - | 133 W/m² | - |
| 1776960288 | 10° C | 83% | 1024.4 hPa | 0 mm | - | 120 W/m² | - |
| 1776959983 | 10° C | 84% | 1024.5 hPa | 0 mm | - | 114 W/m² | - |
* Rain latest hour (hover to see other rain measurements)
** Current wind speed in m/s (hover to see current wind gust speed)